#timestamp,LO_Frequency,Hit,StdDev 
1689620415.1,286047000.7,N
1689620435.9,286046998.2,N
1689620455.7,286046999.0,N
1689620475.6,286046998.7,N
1689620495.4,286046998.3,N
1689620515.2,286047001.2,N
1689620535.1,286047001.2,N
1689620536.0,286047001.2,N
1689620555.8,286046998.8,N
1689620605.7,286047000.8,E
1689620615.6,286047001.2,N
1689620635.4,286046996.9,P
1689620655.3,286046999.6,N
1689620675.1,286046996.7,N
1689620695.9,286046996.6,N
1689620715.7,286046997.2,N
1689620735.5,286046997.8,N
1689620755.4,286046995.0,Y
1689620805.2,286046997.0,E
1689620815.2,286046996.8,N
1689620835.9,286047000.6,P
1689620855.7,286046998.5,N
1689620875.6,286046998.6,N
1689620895.4,286046998.5,N
1689620915.2,286046998.9,N
1689620935.1,286046998.1,N
1689620936.0,286046998.1,N
1689620955.8,286046998.7,N
1689620975.7,286046998.8,N
1689620995.5,286046998.5,N
1689621015.3,286047000.4,N
1689621035.2,286047000.3,N
1689621055.0,286046999.9,N
1689621055.9,286046999.9,N
1689621075.7,286047001.2,N
1689621095.6,286046998.6,N
1689621115.4,286046998.1,N
1689621135.3,286046999.9,N
1689621155.1,286047001.0,N
1689621156.0,286047001.0,N
1689621175.8,286046999.8,N
1689621195.7,286047002.7,N
1689621215.5,286047002.3,N
1689621235.3,286047001.8,N
1689621255.2,286047001.9,N
1689621275.0,286047001.5,N
1689621275.9,286047001.5,N
1689621295.8,286047001.8,N
1689621315.6,286047004.4,N
1689621335.5,286047002.2,N
1689621355.3,286047001.4,N
1689621375.1,286047001.4,N
1689621395.9,286047002.5,N
1689621415.7,286047002.6,N
1689621435.6,286047001.7,N
1689621455.4,286047003.9,N
1689621475.2,286047004.0,N
1689621495.1,286047003.6,N
1689621496.0,286047003.6,N
1689621515.8,286047001.3,N
1689621535.7,286047001.8,N
1689621555.5,286047001.5,N
1689621575.4,286047001.9,N
1689621595.2,286047001.3,N
1689621615.0,286047004.4,Y
1689621615.9,286047004.4,P
1689621635.8,286046999.8,N
1689621655.6,286047000.1,N
1689621675.4,286047000.5,N
1689621695.3,286047000.2,N
1689621715.1,286047000.4,N
1689621735.9,286047000.0,N
1689621755.7,286047000.3,N
1689621775.5,286047000.1,N
1689621795.4,286047000.1,N
1689621815.2,286047000.1,N
1689621835.0,286047000.2,N
1689621835.9,286047000.2,N
1689621855.8,286047002.8,N
1689621875.6,286047002.4,N
1689621895.5,286047001.9,N
1689621915.3,286046999.8,N
1689621935.1,286047002.2,N
1689621955.9,286047004.3,Y
1689621975.7,286047002.6,P
1689621995.6,286047002.8,P
1689622015.4,286046999.8,N
1689622035.2,286047002.5,N
1689622055.1,286047001.9,N
1689622056.0,286047001.9,N
1689622075.8,286047001.6,N
1689622095.6,286047002.2,N
1689622115.5,286047001.6,N
1689622135.3,286047002.5,N
1689622155.2,286047001.4,N
1689622175.9,286047001.6,N
1689622195.7,286047001.6,N
1689622215.6,286047002.2,N
1689622235.4,286047004.3,Y
1689622255.2,286047000.2,P
1689622275.1,286046999.9,N
1689622276.0,286046999.9,N
1689622295.8,286047002.4,N
1689622315.7,286047002.8,N
1689622335.5,286047000.1,N
1689622355.3,286046999.8,N
1689622375.2,286047000.1,N
1689622395.0,286047002.1,N
1689622395.9,286047002.1,N
1689622415.7,286047002.5,N
1689622435.6,286047002.1,N
1689622455.4,286047002.6,N
1689622475.3,286047002.4,N
1689622495.1,286047002.4,N
1689622496.0,286047002.4,N
1689622515.8,286047002.3,N
1689622535.7,286047002.4,N
1689622555.5,286047002.6,N
1689622575.4,286047000.1,N
1689622595.2,286046999.7,N
1689622615.0,286046999.7,N
1689622615.9,286046999.7,N
1689622635.8,286047002.7,N
1689622655.6,286047002.3,N
1689622675.5,286047000.1,N
1689622695.3,286047000.1,N
1689622715.1,286047000.4,N
1689622735.9,286047000.6,N
1689622755.7,286047002.5,N
1689622775.5,286047002.4,N
1689622795.4,286047002.2,N
1689622815.2,286047000.1,N
1689622835.1,286047002.8,N
1689622836.0,286047002.8,N
1689622855.8,286047001.6,N
1689622875.6,286047001.5,N
1689622895.5,286047001.7,N
1689622915.3,286047002.3,N
1689622935.1,286047002.2,N
1689622955.9,286047001.6,N
1689622975.7,286047001.6,N
1689622995.6,286047001.7,N
1689623015.4,286047001.7,N
1689623035.2,286047001.3,N
1689623055.1,286047001.3,N
1689623056.0,286047001.3,N
1689623075.8,286047004.3,Y
1689623095.7,286047001.4,P
1689623115.5,286047002.2,P
1689623135.3,286047002.2,P
1689623155.2,286047001.5,Y
1689623175.0,286047000.9,P
1689623175.9,286047000.9,N
1689623195.8,286046998.1,P
1689623215.6,286047000.6,N
1689623235.4,286047000.8,N
1689623255.3,286047001.0,N
1689623275.1,286047000.0,N
1689623295.9,286047000.4,N
1689623315.7,286047000.3,N
1689623335.5,286047001.0,N
1689623355.4,286047000.9,N
1689623375.2,286047001.2,N
1689623395.0,286047000.7,N
1689623395.9,286047000.7,N
1689623415.8,286047000.8,N
1689623435.6,286047000.5,N
1689623455.5,286047000.8,N
1689623475.3,286047000.9,N
1689623495.1,286047001.0,N
1689623515.9,286047000.7,N
1689623535.7,286047000.0,N
1689623555.5,286047000.9,N
1689623575.4,286047000.8,N
1689623595.2,286047000.9,N
1689623615.1,286047000.4,N
1689623616.0,286047000.4,N
1689623635.8,286047002.8,Y
1689623655.6,286047000.6,P
1689623675.5,286047000.9,P
1689623695.3,286047000.7,P
1689623715.2,286047000.4,Y
1689623735.9,286047001.2,P
1689623755.7,286047000.9,P
1689623775.6,286047000.0,N
1689623795.4,286047001.1,N
1689623815.2,286047000.5,N
1689623835.1,286047001.2,N
1689623836.0,286047001.2,N
1689623855.8,286046998.5,Y
1689623875.7,286046999.6,P
1689623895.5,286046996.5,P
1689623915.3,286046999.1,N
1689623935.2,286047001.2,N
1689623955.0,286046998.3,N
1689623955.9,286046998.3,N
1689623975.7,286047001.1,N
1689623995.6,286046998.2,N
